#timestamp,LO_Frequency,Hit,StdDev 
1618311615.5,286046995.2,N
1618311635.4,286046996.6,N
1618311655.2,286046999.6,N
1618311675.0,286046999.3,N
1618311675.9,286046999.3,N
1618311695.8,286046999.4,N
1618311715.6,286046998.9,N
1618311735.5,286046999.6,N
1618311755.3,286046996.5,N
1618311775.1,286047000.8,N
1618311795.9,286047000.4,N
1618311815.7,286046998.5,N
1618311835.5,286046998.5,N
1618311855.4,286047000.6,N
1618311875.2,286047000.7,N
1618311895.1,286046999.6,N
1618311896.0,286046999.6,N
1618311915.8,286046998.5,N
1618311935.6,286046997.3,N
1618311955.5,286046997.8,N
1618311975.3,286046999.2,N
1618311995.2,286047000.9,N
1618312015.9,286047000.4,N
1618312035.7,286047002.7,N
1618312055.6,286047004.4,N
1618312075.4,286047002.4,N
1618312095.2,286047000.8,N
1618312115.1,286046998.2,N
1618312116.0,286046998.2,N
1618312135.8,286047000.7,N
1618312155.7,286047002.4,N
1618312175.5,286047000.4,N
1618312195.3,286047000.2,N
1618312215.2,286047000.5,N
1618312235.9,286047004.3,N
1618312255.7,286047001.3,N
1618312275.6,286047003.0,N
1618312295.4,286047001.4,N
1618312315.2,286047003.1,N
1618312335.1,286047004.4,N
1618312336.0,286047004.4,N
1618312355.8,286047002.2,N
1618312375.7,286047000.9,N
1618312395.5,286046999.7,N
1618312415.3,286047000.6,N
1618312435.2,286047001.0,N
1618312455.0,286047000.3,N
1618312455.9,286047000.3,N
1618312475.8,286046999.9,N
1618312495.6,286047001.0,N
1618312515.4,286046998.1,N
1618312535.3,286047001.1,N
1618312555.1,286047002.8,N
1618312575.8,286047002.7,N
1618312595.7,286046998.1,N
1618312615.5,286046998.5,N
1618312635.4,286046999.0,N
1618312655.2,286046998.1,N
1618312675.0,286046999.3,N
1618312675.9,286046999.3,N
1618312695.8,286046999.1,N
1618312715.6,286046999.0,N
1618312735.4,286046998.9,N
1618312755.3,286047001.1,N
1618312775.1,286046998.8,N
1618312795.9,286046999.1,N
1618312815.7,286046999.2,N
1618312835.5,286046999.6,N
1618312855.4,286046999.4,N
1618312875.2,286046998.9,N
1618312895.1,286046999.3,N
1618312896.0,286046999.3,N
1618312915.8,286047001.1,N
1618312935.6,286046998.7,N
1618312955.5,286047000.7,N
1618312975.3,286047000.0,N
1618312995.2,286047002.8,N
1618313015.9,286047000.4,N
1618313035.7,286046999.3,N
1618313055.6,286046998.7,N
1618313075.4,286047001.2,N
1618313095.2,286046998.1,N
1618313115.1,286046998.7,N
1618313116.0,286046998.7,N
1618313135.8,286047001.0,N
1618313155.7,286046998.9,N
1618313175.5,286046998.8,N
1618313195.3,286046998.2,N
1618313215.2,286046998.9,N
1618313235.0,286046998.5,N
1618313235.9,286046998.5,N
1618313255.8,286046999.2,N
1618313275.6,286046999.6,N
1618313295.5,286046996.6,Y
1618313315.3,286046999.2,P
1618313335.1,286046996.9,P
1618313355.9,286046998.5,N
1618313375.7,286046998.2,N
1618313395.5,286047001.2,N
1618313415.4,286046999.4,N
1618313435.2,286046999.0,N
1618313455.1,286047000.4,N
1618313456.0,286047000.4,N
1618313475.8,286047000.4,N
1618313495.6,286047001.1,N
1618313515.5,286046998.1,N
1618313535.3,286047000.0,N
1618313555.2,286047001.9,N
1618313575.9,286047000.0,N
1618313595.7,286047000.8,N
1618313615.6,286047000.7,N
1618313635.4,286046999.8,N
1618313655.3,286047002.2,N
1618313675.1,286047000.3,N
1618313676.0,286047000.3,N
1618313695.8,286047000.7,N
1618313715.7,286047000.0,N
1618313735.5,286047000.0,N
1618313755.3,286047001.2,N
1618313775.2,286046998.3,N
1618313795.0,286046998.7,N
1618313795.9,286046998.7,N
1618313815.8,286046998.3,N
1618313835.6,286046998.8,N
1618313855.4,286046998.2,N
1618313875.3,286047002.1,N
1618313895.1,286047001.7,N
1618313915.8,286047002.3,N
1618313935.7,286047001.4,N
1618313955.5,286047002.6,N
1618313975.4,286047001.9,N
1618313995.2,286047002.6,N
1618314015.0,286047003.8,N
1618314015.9,286047003.8,N
1618314035.8,286047001.5,N
1618314055.6,286047000.9,N
1618314075.4,286047000.8,N
1618314095.3,286047000.3,N
1618314115.1,286047002.2,N
1618314135.9,286047000.0,N
1618314155.7,286046999.8,N
1618314175.5,286047001.6,N
1618314195.4,286046999.9,N
1618314215.2,286046999.9,N
1618314235.0,286046998.5,N
1618314236.0,286046998.5,N
1618314255.8,286046998.1,N
1618314275.6,286047002.4,N
1618314295.5,286047001.5,N
1618314315.3,286047000.1,N
1618314335.1,286046999.7,N
1618314355.9,286046998.6,N
1618314375.7,286046999.1,N
1618314395.5,286046996.8,N
1618314415.4,286046995.1,N
1618314435.2,286046994.9,N
1618314455.1,286046997.9,N
1618314456.0,286046997.9,N
1618314475.8,286046996.1,N
1618314495.6,286046996.0,N
1618314515.5,286046997.9,N
1618314535.3,286046998.6,N
1618314555.1,286047000.0,N
1618314575.9,286047001.8,N
1618314595.7,286047002.2,N
1618314615.6,286047000.5,N
1618314635.4,286047000.8,N
1618314655.2,286046998.5,N
1618314675.1,286047001.0,N
1618314676.0,286047001.0,N
1618314695.8,286046998.2,N
1618314715.7,286046998.5,N
1618314735.5,286046999.2,N
1618314755.3,286046995.5,N
1618314775.2,286046996.0,N
1618314795.0,286046995.4,N
1618314795.9,286046995.4,N
1618314815.8,286046997.5,N
1618314835.6,286046995.2,N
1618314855.4,286046997.6,N
1618314875.3,286046996.5,N
1618314895.1,286046999.5,N
1618314915.9,286046997.5,N
1618314935.7,286046997.3,N
1618314955.5,286046998.9,N
1618314975.4,286046999.2,N
1618314995.2,286047000.8,N
1618315015.0,286047000.7,N
1618315015.9,286047000.7,N
1618315035.8,286046999.5,N
1618315055.6,286046997.4,N
1618315075.5,286046994.9,N
1618315095.3,286046996.8,N
1618315115.1,286046996.5,N
1618315135.9,286047000.4,N
1618315155.7,286046998.7,N
1618315175.6,286046998.4,N
1618315195.4,286047001.0,N
